• In Uzbekistan
  • List of Countries
  • For 7 days
  • Water Temperature
  • Satellite Maps
  • Weather Map
  • Weather Widgets
  • user-avatar
    Login

    Hourly Weather Batumi

    Today, 21 August, Monday

    Time Temperature Precipitation Wind Pressure Humidity
    00:00 +27°C° 0 mm 1 mps 759 mmHg 87%
    01:00 +27°C° 0 mm 1 mps 759 mmHg 84%
    02:00 +27°C° 0 mm 1 mps 759 mmHg 82%
    03:00 +27°C° 0 mm 2 mps 759 mmHg 80%
    04:00 +27°C° 0 mm 2 mps 759 mmHg 78%
    05:00 +27°C° 0 mm 2 mps 759 mmHg 75%
    06:00 +26°C° 0 mm 2 mps 758 mmHg 73%
    07:00 +29°C° 0 mm 2 mps 758 mmHg 64%
    08:00 +32°C° 0 mm 2 mps 758 mmHg 55%
    09:00 +35°C° 0 mm 2 mps 757 mmHg 47%
    10:00 +37°C° 0 mm 2 mps 757 mmHg 42%
    11:00 +38°C° 0 mm 2 mps 756 mmHg 38%
    12:00 +40°C° 0 mm 3 mps 756 mmHg 33%
    13:00 +40°C° 0 mm 3 mps 755 mmHg 33%
    14:00 +40°C° 0 mm 3 mps 755 mmHg 32%
    15:00 +40°C° 0 mm 3 mps 754 mmHg 32%
    16:00 +39°C° 0 mm 2 mps 754 mmHg 38%
    17:00 +38°C° 0 mm 2 mps 754 mmHg 44%
    18:00 +36°C° 0 mm 2 mps 753 mmHg 51%
    19:00 +35°C° 0 mm 2 mps 754 mmHg 50%
    20:00 +32°C° 0 mm 2 mps 754 mmHg 49%
    21:00 +30°C° 0 mm 2 mps 754 mmHg 49%
    22:00 +30°C° 0 mm 2 mps 755 mmHg 47%
    23:00 +29°C° 0 mm 3 mps 755 mmHg 46%

    Tomorrow, 22 August, Tuesday

    Time Temperature Precipitation Wind Pressure Humidity
    00:00 +29°C° 0 mm 3 mps 755 mmHg 44%
    01:00 +28°C° 0 mm 3 mps 755 mmHg 46%
    02:00 +28°C° 0 mm 3 mps 756 mmHg 48%
    03:00 +27°C° 0 mm 3 mps 756 mmHg 51%
    04:00 +27°C° 0 mm 3 mps 756 mmHg 54%
    05:00 +27°C° 0 mm 2 mps 756 mmHg 57%
    06:00 +27°C° 0 mm 2 mps 756 mmHg 60%
    07:00 +29°C° 0 mm 2 mps 756 mmHg 57%
    08:00 +32°C° 0 mm 2 mps 756 mmHg 53%
    09:00 +34°C° 0 mm 1 mps 756 mmHg 50%
    10:00 +36°C° 0 mm 2 mps 756 mmHg 50%
    11:00 +37°C° 0 mm 2 mps 756 mmHg 51%
    12:00 +37°C° 0 mm 2 mps 756 mmHg 51%
    13:00 +37°C° 0 mm 2 mps 756 mmHg 55%
    14:00 +36°C° 0 mm 2 mps 755 mmHg 60%
    15:00 +36°C° 0 mm 3 mps 755 mmHg 65%
    16:00 +35°C° 0.1 mm 3 mps 755 mmHg 72%
    17:00 +32°C° 0.1 mm 2 mps 755 mmHg 80%
    18:00 +31°C° 0.1 mm 2 mps 755 mmHg 87%
    19:00 +30°C° 0.1 mm 2 mps 756 mmHg 89%
    20:00 +29°C° 0.1 mm 2 mps 757 mmHg 91%
    21:00 +29°C° 0.1 mm 1 mps 757 mmHg 94%
    22:00 +28°C° 0.2 mm 1 mps 757 mmHg 94%
    23:00 +28°C° 0.2 mm 1 mps 757 mmHg 94%

    Day after tomorrow, 23 August, Wednesday

    Time Temperature Precipitation Wind Pressure Humidity
    00:00 +28°C° 0.2 mm 1 mps 758 mmHg 95%
    01:00 +28°C° 0.3 mm 1 mps 758 mmHg 95%
    02:00 +27°C° 0.3 mm 1 mps 758 mmHg 95%
    03:00 +27°C° 0.3 mm 1 mps 758 mmHg 95%
    04:00 +27°C° 0.3 mm 1 mps 758 mmHg 94%
    05:00 +27°C° 0.3 mm 1 mps 758 mmHg 94%
    06:00 +27°C° 0.3 mm 1 mps 758 mmHg 94%
    07:00 +28°C° 0.4 mm 1 mps 758 mmHg 87%
    08:00 +30°C° 0.4 mm 2 mps 758 mmHg 81%
    09:00 +32°C° 0.4 mm 2 mps 758 mmHg 74%
    10:00 +32°C° 0.3 mm 2 mps 758 mmHg 75%
    11:00 +33°C° 0.3 mm 3 mps 758 mmHg 76%
    12:00 +33°C° 0.3 mm 3 mps 758 mmHg 77%
    13:00 +32°C° 0.6 mm 4 mps 758 mmHg 80%
    14:00 +30°C° 0.6 mm 4 mps 758 mmHg 83%
    15:00 +30°C° 0.6 mm 4 mps 759 mmHg 85%
    16:00 +29°C° 0.5 mm 4 mps 759 mmHg 88%
    17:00 +29°C° 0.5 mm 4 mps 760 mmHg 90%
    18:00 +28°C° 0.5 mm 3 mps 760 mmHg 92%
    19:00 +28°C° 0.8 mm 3 mps 761 mmHg 93%
    20:00 +27°C° 0.8 mm 3 mps 761 mmHg 94%
    21:00 +27°C° 0.8 mm 2 mps 762 mmHg 95%
    22:00 +27°C° 0.8 mm 2 mps 762 mmHg 95%
    23:00 +27°C° 0.8 mm 2 mps 762 mmHg 96%

    24 August, Thursday

    Time Temperature Precipitation Wind Pressure Humidity
    00:00 +27°C° 0.8 mm 2 mps 762 mmHg 96%
    01:00 +27°C° 0.6 mm 2 mps 762 mmHg 96%
    02:00 +27°C° 0.6 mm 3 mps 762 mmHg 97%
    03:00 +26°C° 0.6 mm 3 mps 762 mmHg 97%
    04:00 +26°C° 0.7 mm 3 mps 762 mmHg 97%
    05:00 +26°C° 0.7 mm 2 mps 763 mmHg 96%
    06:00 +26°C° 0.7 mm 2 mps 763 mmHg 96%
    07:00 +27°C° 0.4 mm 3 mps 763 mmHg 93%
    08:00 +28°C° 0.4 mm 3 mps 763 mmHg 90%
    09:00 +28°C° 0.4 mm 3 mps 763 mmHg 86%
    10:00 +29°C° 0.2 mm 3 mps 762 mmHg 83%
    11:00 +29°C° 0.2 mm 3 mps 762 mmHg 80%
    12:00 +30°C° 0.2 mm 3 mps 762 mmHg 77%
    13:00 +30°C° 0.2 mm 3 mps 762 mmHg 79%
    14:00 +30°C° 0.2 mm 3 mps 762 mmHg 80%
    15:00 +29°C° 0.2 mm 3 mps 762 mmHg 82%
    16:00 +29°C° 0.1 mm 3 mps 762 mmHg 84%
    17:00 +28°C° 0.1 mm 3 mps 762 mmHg 87%
    18:00 +28°C° 0.1 mm 2 mps 763 mmHg 89%
    19:00 +27°C° 0.1 mm 2 mps 763 mmHg 91%
    20:00 +27°C° 0.1 mm 2 mps 764 mmHg 93%
    21:00 +27°C° 0.1 mm 2 mps 764 mmHg 95%
    22:00 +26°C° 0 mm 2 mps 764 mmHg 95%
    23:00 +26°C° 0 mm 2 mps 764 mmHg 95%

    25 August, Friday

    Time Temperature Precipitation Wind Pressure Humidity
    00:00 +26°C° 0 mm 2 mps 764 mmHg 95%
    01:00 +26°C° 0 mm 2 mps 764 mmHg 95%
    02:00 +26°C° 0 mm 2 mps 764 mmHg 96%
    03:00 +26°C° 0 mm 2 mps 764 mmHg 96%
    04:00 +26°C° 0 mm 2 mps 764 mmHg 96%
    05:00 +26°C° 0 mm 2 mps 764 mmHg 96%
    06:00 +26°C° 0 mm 2 mps 764 mmHg 95%
    07:00 +27°C° 0.1 mm 2 mps 764 mmHg 90%
    08:00 +28°C° 0.1 mm 2 mps 764 mmHg 85%
    09:00 +29°C° 0.1 mm 2 mps 763 mmHg 79%
    10:00 +29°C° 0.1 mm 2 mps 763 mmHg 77%
    11:00 +30°C° 0.1 mm 3 mps 763 mmHg 75%
    12:00 +31°C° 0.1 mm 3 mps 762 mmHg 74%
    13:00 +31°C° 0 mm 3 mps 762 mmHg 75%
    14:00 +30°C° 0 mm 3 mps 762 mmHg 77%
    15:00 +30°C° 0 mm 3 mps 762 mmHg 78%
    16:00 +30°C° 0 mm 3 mps 762 mmHg 82%
    17:00 +29°C° 0 mm 3 mps 762 mmHg 85%
    18:00 +28°C° 0 mm 3 mps 762 mmHg 88%
    19:00 +28°C° 0.1 mm 3 mps 763 mmHg 90%
    20:00 +27°C° 0.1 mm 3 mps 763 mmHg 92%
    21:00 +27°C° 0.1 mm 2 mps 764 mmHg 95%
    22:00 +27°C° 0.2 mm 2 mps 764 mmHg 94%
    23:00 +26°C° 0.2 mm 2 mps 764 mmHg 94%

    26 August, Saturday

    Time Temperature Precipitation Wind Pressure Humidity
    00:00 +26°C° 0.2 mm 2 mps 764 mmHg 94%
    01:00 +26°C° 0.1 mm 2 mps 763 mmHg 95%
    02:00 +26°C° 0.1 mm 2 mps 763 mmHg 95%
    03:00 +26°C° 0.1 mm 2 mps 763 mmHg 95%
    04:00 +26°C° 0.1 mm 2 mps 763 mmHg 95%
    05:00 +26°C° 0.1 mm 2 mps 763 mmHg 95%
    06:00 +25°C° 0.1 mm 2 mps 763 mmHg 95%
    07:00 +27°C° 0.1 mm 2 mps 763 mmHg 89%
    08:00 +28°C° 0.1 mm 2 mps 762 mmHg 84%
    09:00 +29°C° 0.1 mm 3 mps 762 mmHg 78%
    10:00 +30°C° 0.1 mm 3 mps 762 mmHg 76%
    11:00 +30°C° 0.1 mm 3 mps 761 mmHg 74%
    12:00 +31°C° 0.1 mm 3 mps 761 mmHg 72%
    13:00 +32°C° 0.1 mm 4 mps 760 mmHg 74%
    14:00 +32°C° 0.1 mm 4 mps 760 mmHg 75%
    15:00 +32°C° 0.1 mm 4 mps 760 mmHg 76%
    16:00 +30°C° 0.1 mm 3 mps 760 mmHg 80%
    17:00 +29°C° 0.1 mm 3 mps 760 mmHg 85%
    18:00 +28°C° 0.1 mm 3 mps 760 mmHg 89%
    19:00 +28°C° 0.1 mm 3 mps 761 mmHg 91%
    20:00 +27°C° 0.1 mm 3 mps 761 mmHg 93%
    21:00 +27°C° 0.1 mm 3 mps 761 mmHg 95%
    22:00 +27°C° 0.1 mm 3 mps 761 mmHg 95%
    23:00 +26°C° 0.1 mm 2 mps 761 mmHg 95%
    Show more